Regional Weather Roundup
Issued by NWS

Home | Current Version | Previous Version | Graphics & Text | Print | Product List | Glossary On
Versions: 1 2 3 4 5 6 7 8 9 10 11 12 13 14 15 16 17 18 19 20 21 22 23 24 25 26 27 28 29 30 31 32 33 34 35 36 37 38 39 40 41 42 43 44 45 46 47 48 49 50
000
ASUS43 KLSX 172107
RWRMO

WEATHER SUMMARY FOR MISSOURI
NATIONAL WEATHER SERVICE SPRINGFIELD MO
400 PM CDT FRI APR 17 2015

NOTE: "FAIR" INDICATES FEW OR NO CLOUDS BELOW 12,000 FEET WITH NO
       SIGNIFICANT WEATHER AND/OR OBSTRUCTIONS TO VISIBILITY.
       CURRENT SKY AND/OR WEATHER CONDITIONS ARE NOT AVAILABLE FOR
       CHILLICOTHE AND FARMINGTON.

MOZ001>031-035>038-043-044-053-054-172200-
...NORTHERN AND WESTERN MISSOURI...

CITY           SKY/WX    TMP DP  RH WIND       PRES   REMARKS
KANSAS CTY INT CLOUDY    75  55  49 SE10      29.96F
KANSAS C DTWN  CLOUDY    78  56  46 SE8       29.94F
LEE`S SUMMIT   PTSUNNY   76  56  49 SE7       29.96F
ST JOSEPH      CLOUDY    76  55  48 E6        29.97F
CHILLICOTHE      N/A     79  56  45 CALM      29.98F
KIRKSVILLE     PTSUNNY   78  55  44 S7        30.01F

$$
MOZ066>068-077>081-088>096-101>105-172200-
...SOUTHWEST MISSOURI...

CITY           SKY/WX    TMP DP  RH WIND       PRES   REMARKS
SPRINGFIELD    MOSUNNY   75  59  57 S9        29.97F
JOPLIN         MOSUNNY   74  62  66 SE10      29.95F

$$
MOZ032>034-039>042-045>050-055>058-069>072-172200-
...CENTRAL MISSOURI...

CITY           SKY/WX    TMP DP  RH WIND       PRES   REMARKS
COLUMBIA       PTSUNNY   76  54  46 E3        29.99F
JEFFERSON CITY MOSUNNY   80  52  37 CALM      29.97F
ROLLA          PTSUNNY   78  53  41 E5        29.97F
SEDALIA        MOSUNNY   80  56  43 SE10G17   29.97F
WHITEMAN AFB   MOSUNNY   78  58  50 SE6       29.95F
OSAGE BEACH    PTSUNNY   79  54  41 NE7       29.97F

$$
MOZ051-052-059>065-172200-
...EAST CENTRAL MISSOURI...

CITY           SKY/WX    TMP DP  RH WIND       PRES   REMARKS
ST LOUIS INTL  MOSUNNY   79  56  45 VRB5      30.01F
SPIRIT OF STL  MOSUNNY   78  54  43 CALM      29.99F
ST CHARLES     MOSUNNY   76  54  46 E9        30.00F

$$
MOZ072>076-082>087-097>100-106>115-172200-
...SOUTH CENTRAL AND SOUTHEAST MISSOURI...

CITY           SKY/WX    TMP DP  RH WIND       PRES   REMARKS
CAPE GIRARDEAU PTSUNNY   74  63  68 CALM      30.01F
FARMINGTON     MOSUNNY   73  57  56 SE5       30.04F
POPLAR BLUFF   PTSUNNY   71  62  73 E6        30.00F
WEST PLAINS    MOSUNNY   75  56  51 E8        30.01F

$$


USA.gov is the U.S. government's official web portal to all federal, state and local government web resources and services.